Regional Weather Roundup
Issued by NWS

Home | Current Version | Previous Version | Graphics & Text | Print | Product List | Glossary On
Versions: 1 2 3 4 5 6 7 8 9 10 11 12 13 14 15 16 17 18 19 20 21 22 23 24 25 26 27
000
ASUS45 KTFX 200310
RWRMT
MONTANA REGIONAL WEATHER ROUNDUP
NATIONAL WEATHER SERVICE GREAT FALLS MT
900 PM MDT SAT AUG 19 2017

NOTE: "FAIR" INDICATES FEW OR NO CLOUDS BELOW 12000 FEET WITH NO
SIGNIFICANT WEATHER AND/OR OBSTRUCTIONS TO VISIBILITY.

MTZ001>007-043-200400-
WEST OF THE DIVIDE

CITY           SKY/WX    TMP DP  RH WIND       PRES   REMARKS
KALISPELL      CLEAR     68  37  32 W3        29.99R
MISSOULA       CLEAR     65  39  38 NW8       30.03R
BUTTE          CLOUDY    67  33  28 N5        30.09R
MULLAN PASS    CLEAR     53  34  48 VRB3      30.18R
ANACONDA         N/A     64  36  34 N8        30.07R
DEER LODGE       N/A     64  37  36 N7        30.07R
EUREKA           N/A     73  36  25 MISG      29.97R
HAMILTON         N/A     66  37  34 NE7       30.04R
LIBBY            N/A     68  36  30 CALM      29.99R
RONAN            N/A     69  39  33 MISG      30.07R
$$

MTZ008-052>055-200400-
SOUTHWEST MONTANA

CITY           SKY/WX    TMP DP  RH WIND       PRES   REMARKS
BOZEMAN        CLOUDY    71  36  27 N10       29.99R
DILLON         CLOUDY    70  30  22 NE12      30.01R
W YELLOWSTONE  CLOUDY    57  34  41 CALM      30.12S
THREE FORKS      N/A     73  36  26 N8        29.99R
$$

MTZ009-010-012-014-046-048-049-054-200400-
EAST SLOPES AND CENTRAL MONTANA

CITY           SKY/WX    TMP DP  RH WIND       PRES   REMARKS
CUT BANK       CLEAR     61  36  39 NE14      30.01R
GREAT FALLS    PTCLDY    66  37  34 E10       30.01R
MALMSTROM AFB  PTCLDY    63  38  39 E6        30.01R
HELENA         MOCLDY    73  33  23 NW9       29.99R
AUGUSTA          N/A     60  39  46 E9        30.04R
BOWMANS CRNR     N/A     63  36  35 E12       30.02R
CHOTEAU          N/A     63  37  39 E8        30.04R
CONRAD           N/A     63  44  49 NE2       30.04R
FAIRFIELD        N/A     64  36  35 E7        30.01R
POWER            N/A     61  35  38 E7        30.02R
RAYNESFORD       N/A     64  38  37 SE14      30.03R
ULM              N/A     65  37  34 NE10      30.00R
$$

MTZ011-013-016-021-045-047-050-051-200400-
NORTH CENTRAL MONTANA

CITY           SKY/WX    TMP DP  RH WIND       PRES   REMARKS
HAVRE          CLEAR     66  34  30 NE13      30.00R
LEWISTOWN      MOCLDY    68  37  32 N9G17     30.04R
N BAR RANCH      N/A     66  37  34 NE7       30.08R
CHINOOK          N/A     64  36  34 N5        30.00R
DENTON           N/A     64  38  38 CALM      30.00R
GEYSER           N/A     60  37  42 E3        30.04R
GRASS RANGE      N/A     65  37  35 NE8       30.01R
JUDITH GAP     MOCLDY    64  38  39 NW15      30.05R
WINIFRED       MOCLDY    64  38  38 NE9       30.02R
$$

MTZ017>020-022>027-061-062-200400-
NORTHEAST MONTANA

CITY           SKY/WX    TMP DP  RH WIND       PRES   REMARKS
GLASGOW        CLEAR     66  33  29 N10       29.97R
JORDAN           N/A     69  38  32 NE8       29.96R
SIDNEY         CLOUDY    67  43  41 NW8       29.93R
WOLF POINT     PTCLDY    69  35  28 N10       29.95R
MALTA          CLEAR     66  34  30 N9        29.99R
PLENTYWOOD       N/A     64  37  36 NW12      29.94R
POPLAR           N/A     64  41  42 N5        29.95R
$$

MTZ028>42-056>058-200400-
SOUTHCENTRAL AND SOUTHEAST MONTANA

CITY           SKY/WX    TMP DP  RH WIND       PRES   REMARKS
BAKER          CLEAR     68  41  37 N10       29.96R
BILLINGS       CLOUDY    73  39  29 NE12      29.96R
LIVINGSTON     CLOUDY    72  38  29 E6        30.01R
MILES CITY     CLEAR     72  37  28 NE10      29.95R
BIG TIMBER     CLEAR     72  37  28 N13       30.04R
HARLOWTON      MOCLDY    67  37  32 MISG      30.03R
LAUREL           N/A     74  38  27 N7        29.96R
$$

REGIONAL REPORTS...DAKOTAS

CITY           SKY/WX    TMP DP  RH WIND       PRES   REMARKS
WILLISTON      CLEAR     67  41  38 NW9       29.92R
MINOT          CLEAR     71  47  42 NW16      29.83R
DICKINSON      PTCLDY    69  46  43 N12       29.91R
BEACH            N/A     63  43  48 N8        29.99R
CROSBY           N/A     63  37  39 NW8       29.91R
TIOGA            N/A     63  43  48 NW8       29.92R
WATFORD CITY     N/A     66  45  45 NW7       29.91R
BISMARCK       PTCLDY    76  55  48 NW12      29.82R
GRAND FORKS    PTCLDY    75  64  68 S16       29.71S
FARGO          MOCLDY    74  64  71 S16G22    29.77R
BUFFALO SD       N/A     73  42  32 N12       29.88R
RAPID CITY     CLEAR     73  41  31 N9        29.92R
$$

REGIONAL REPORTS...WYOMING/IDAHO/WASHINGTON

CITY           SKY/WX    TMP DP  RH WIND       PRES   REMARKS
GILLETTE       CLOUDY    71  34  25 NE8       29.97R
SHERIDAN       CLOUDY    65  45  48 CALM      29.96R
BUFFALO WY     MOCLDY    67  33  28 W6        30.03R
CODY           CLEAR     70  33  25 NW5       30.03R
YELLOWSTONE LA   N/A     51  38  60 NW5       30.25R
IDAHO FALLS    PTCLDY    77  38  24 S10       29.98R
SALMON         CLOUDY    74  41  30 N12       29.98R
BOISE          CLEAR     79  38  22 NW6       29.93R
SPOKANE        PTCLDY    73  34  23 W6        30.02R
$$

REGIONAL REPORTS...ALBERTA

CITY           SKY/WX    TMP DP  RH WIND       PRES   REMARKS
EDMONTON       PTCLDY    55  45  67 W3        29.91R
CALGARY        PTCLDY    59  36  41 SE8       30.00R
LETHBRIDGE     PTCLDY    57  39  51 E9        29.99R
MEDICINE HAT   PTCLDY    61  36  39 S3        30.00R
$$

REGIONAL REPORTS...SASKATCHEWAN

CITY           SKY/WX    TMP DP  RH WIND       PRES   REMARKS
SWIFT CURRENT  CLEAR     54  32  43 W7        29.99R
REGINA         PTCLDY    59  34  38 W8        29.92R
SASKATOON      PTCLDY    54  41  62 W8        29.91R
$$




USA.gov is the U.S. government's official web portal to all federal, state and local government web resources and services.